Wind_Speed
36 33 32 29 39 41 39 43 44 42 42 41 39 38 36 34 33 32 29 29 27 24 21 19 17 15 15 14 11 10 6 9 9 9 9 11 9 9 8 6 6 5 6 4 4
37 37 33 31 31 38 38 39 41 43 44 40 39 38 37 35 34 33 33 31 29 26 23 20 19 16 15 14 12 10 9 10 11 11 8 13 9 12 8 8 8 8 7 6 5
40 39 38 33 29 29 34 38 38 38 41 42 41 39 37 35 34 36 33 33 30 27 24 22 19 17 17 16 14 14 8 15 16 17 15 15 15 14 9 7 8 8 13 11 9
41 41 40 38 34 29 27 32 35 35 39 37 37 39 40 38 31 38 35 34 30 28 26 23 21 20 19 19 19 16 18 17 18 18 18 17 20 19 19 11 17 18 15 15 14
45 43 43 41 37 33 28 27 26 35 34 35 35 36 37 36 39 35 30 36 34 32 30 27 25 23 23 18 21 21 16 21 22 21 20 23 22 23 24 24 22 22 20 20 20
44 43 44 42 40 35 29 28 25 22 30 33 32 33 35 36 36 33 35 24 25 33 34 32 30 27 26 18 23 15 20 25 27 25 26 25 25 29 26 26 27 25 25 25 24
38 42 39 41 44 38 31 30 27 24 21 25 27 31 35 33 33 33 32 32 25 13 24 30 32 29 26 27 29 26 25 26 28 28 28 28 32 35 28 30 29 29 28 30 27
44 38 37 37 40 43 38 28 26 23 21 21 21 25 34 33 34 32 32 32 29 26 17 21 26 28 25 26 24 22 19 20 18 28 31 31 32 22 25 32 33 31 33 32 30
44 35 40 37 37 44 38 40 26 23 19 24 23 20 25 31 33 31 31 30 29 28 27 17 19 23 27 21 12 16 13 20 17 25 26 30 27 21 29 29 28 28 29 29 29
48 48 47 33 39 40 44 39 26 29 24 27 26 22 23 16 28 29 27 28 26 26 28 27 24 21 20 21 20 17 20 17 20 19 27 25 33 22 30 28 27 27 27 27 26
43 39 50 37 32 39 41 43 38 36 39 36 32 26 6 12 15 25 24 25 23 24 26 29 29 31 27 26 23 14 19 16 16 20 22 24 27 26 26 29 31 30 29 27 27
47 39 41 47 36 35 39 46 46 45 40 36 33 31 22 13 11 18 23 27 27 26 21 21 30 23 20 22 25 22 16 17 14 17 20 20 27 31 32 35 34 31 29 27 26
49 45 34 47 40 35 39 41 42 44 33 38 37 37 32 22 19 14 19 26 29 27 27 24 11 23 21 22 24 25 21 17 13 9 20 21 33 37 35 35 36 33 29 29 32
49 48 40 39 45 41 38 39 40 46 30 32 45 37 36 29 24 17 15 22 27 27 23 23 24 21 24 26 23 24 20 20 18 14 12 8 11 15 18 22 21 21 25 27 31
35 39 39 44 47 46 42 41 39 37 13 23 40 37 45 42 24 30 22 21 27 26 27 19 19 27 25 26 22 20 17 17 15 16 17 20 12 11 18 27 28 29 28 28 31
34 33 34 37 41 51 47 25 43 35 13 22 33 48 35 44 30 26 31 25 20 19 25 26 21 21 22 20 22 16 13 10 10 10 14 23 19 18 20 21 15 8 14 26 27
34 34 35 36 44 44 49 33 33 21 21 23 35 47 54 43 37 34 37 34 28 19 24 22 29 25 21 22 24 23 13 6 6 7 8 6 17 29 8 18 19 22 26 28 32
32 33 35 35 38 47 50 48 20 27 26 20 35 37 49 40 46 42 36 39 38 35 15 26 15 31 31 27 21 34 29 12 6 6 6 13 15 10 12 22 22 23 27 29 27
26 33 37 36 37 39 35 37 12 12 41 27 29 38 41 42 36 41 42 50 48 42 28 23 20 14 19 32 24 18 35 27 13 13 5 14 15 23 24 21 21 22 29 29 29
29 35 38 34 32 37 36 29 18 17 18 29 34 37 40 48 39 42 39 43 42 45 35 15 9 15 23 22 30 21 19 19 22 6 9 17 25 25 18 20 22 29 31 34 35
32 34 31 31 32 30 30 27 31 16 26 30 36 34 44 43 49 46 34 29 40 36 41 26 18 11 23 30 29 33 26 22 19 21 9 12 20 25 26 27 28 26 29 33 30
35 33 31 29 26 23 12 21 25 39 18 27 26 35 43 47 54 39 43 44 31 43 42 42 19 19 30 17 28 30 34 39 23 21 26 33 40 28 22 19 20 22 26 24 25
38 33 27 29 26 23 14 12 13 25 29 10 10 27 29 43 36 40 40 43 27 32 43 40 26 11 11 19 26 36 38 33 40 29 27 19 35 32 37 32 26 26 28 29 33
39 29 25 29 33 29 29 27 27 19 24 35 21 17 24 34 36 37 35 31 39 30 37 33 33 33 32 31 24 29 35 41 36 28 41 38 46 39 30 25 26 26 28 29 33
34 27 27 24 29 28 26 26 32 31 35 25 27 10 23 37 40 28 42 31 36 39 30 34 33 36 46 39 28 19 28 36 39 48 37 45 41 52 47 41 36 34 36 39 41
30 21 24 25 21 19 29 32 34 34 38 33 36 16 23 19 46 35 35 39 41 38 42 39 36 33 38 43 38 41 28 26 39 44 49 52 51 52 50 46 41 36 41 46 40
19 21 16 18 24 28 32 32 31 30 33 42 46 36 33 23 20 30 35 33 25 35 42 40 43 26 27 37 33 31 40 45 43 40 44 43 55 52 53 50 50 49 47 53 50
Wind_Direction
224 221 227 230 230 230 229 230 232 232 233 233 234 236 236 236 236 237 238 241 242 243 244 247 251 255 259 254 244 233 219 220 213 196 217 206 203 208 198 199 203 204 191 180 192
222 224 223 227 229 230 229 230 231 233 234 234 235 236 237 237 236 236 237 237 239 239 238 240 242 245 252 250 240 222 221 228 203 205 195 213 187 208 207 224 231 225 219 227 251
224 222 225 226 226 232 232 231 231 231 234 234 237 237 237 237 239 236 236 236 236 238 238 235 237 236 241 242 239 231 219 235 229 225 218 223 227 226 206 209 212 217 238 248 248
222 224 226 221 224 226 232 235 231 231 232 233 234 238 239 239 240 242 235 237 235 237 238 235 235 235 236 238 237 238 232 235 236 232 227 227 228 231 231 222 230 243 252 256 258
224 226 225 220 220 223 226 234 235 234 231 232 233 236 238 238 238 239 244 241 239 236 236 236 234 234 236 237 238 237 239 238 242 240 236 236 236 233 236 238 248 253 255 258 263
225 227 226 222 218 217 228 229 233 234 237 232 233 235 237 238 240 239 241 243 238 237 236 235 235 233 235 228 237 244 225 243 242 241 242 243 243 245 245 245 252 254 259 261 262
221 220 222 222 220 216 209 223 223 227 236 236 234 234 235 236 236 238 239 238 237 232 231 229 233 236 234 237 236 236 240 243 240 238 243 245 244 250 246 253 249 256 258 263 268
219 215 219 216 216 209 211 216 208 214 226 233 233 233 238 236 238 235 237 238 237 234 231 226 223 224 224 225 238 233 231 233 241 236 240 243 251 252 246 246 253 253 255 260 264
223 228 213 211 213 210 209 213 210 193 219 229 228 234 241 235 236 236 234 235 233 231 226 221 221 222 224 221 220 216 234 228 233 237 229 238 247 243 253 249 249 247 255 260 267
225 223 221 203 210 211 209 211 216 214 206 223 228 230 234 237 234 234 231 232 229 230 227 226 224 220 219 203 212 221 226 225 225 259 230 240 248 246 253 250 251 252 256 262 266
217 220 220 220 196 206 211 206 209 215 219 217 220 225 232 236 235 230 228 227 223 224 226 226 222 219 223 225 220 229 229 230 242 242 247 246 251 248 247 260 259 258 264 266 267
219 215 220 228 207 202 211 209 212 213 216 223 229 230 230 212 216 225 219 213 209 215 211 217 226 223 224 226 226 233 229 229 239 236 251 255 260 261 257 262 266 269 269 269 266
216 220 214 219 215 193 214 213 213 216 218 222 224 227 233 232 214 210 219 212 211 205 203 211 231 219 222 222 222 225 227 225 234 246 260 275 273 269 269 265 265 264 264 262 263
220 228 228 213 215 195 202 206 212 216 222 228 225 226 219 215 209 203 205 214 210 210 211 229 224 237 219 225 221 230 232 234 237 244 245 222 286 253 239 256 257 256 255 254 257
215 222 226 227 216 207 200 204 206 213 229 229 219 220 222 217 223 227 220 212 219 216 202 215 216 226 221 224 220 232 229 233 226 236 263 251 263 264 238 257 267 256 246 243 251
214 213 212 220 218 211 204 201 201 202 215 197 205 212 214 218 211 213 209 208 206 213 219 225 233 216 228 219 217 213 216 216 227 246 255 242 225 258 245 257 239 217 246 247 247
207 213 216 219 216 213 203 197 198 211 209 187 197 206 217 207 201 199 202 204 200 193 215 223 235 234 222 216 212 214 196 200 223 218 243 229 221 238 224 227 232 243 253 259 255
209 208 214 215 214 216 213 210 233 212 186 198 200 203 205 199 206 211 215 211 215 217 213 208 218 223 222 213 213 220 208 199 219 218 250 209 229 244 239 233 251 248 249 244 239
207 206 209 211 213 214 217 219 227 223 216 209 192 190 198 198 208 205 210 217 222 213 208 207 225 240 217 220 207 212 212 218 266 272 283 225 251 261 256 257 240 242 241 238 235
204 203 209 208 218 222 223 221 231 219 193 201 190 193 191 198 198 203 209 222 218 222 210 220 214 219 215 203 208 215 217 209 219 219 243 252 257 252 272 269 255 248 241 246 249
195 197 202 206 207 210 213 224 225 191 194 193 203 193 199 189 202 203 204 217 216 215 211 215 217 207 200 207 208 207 219 214 228 232 244 260 255 260 263 258 256 248 253 247 253
190 194 201 200 207 212 187 212 228 224 202 210 204 207 198 196 203 206 210 218 220 208 215 216 224 227 220 223 223 223 227 214 214 221 236 248 258 253 262 252 240 243 238 240 257
186 188 193 205 209 225 232 202 210 228 238 223 244 194 195 198 201 205 214 221 220 206 213 210 214 211 231 229 228 218 221 225 229 239 240 235 254 262 253 259 257 251 245 251 267
186 187 195 206 222 227 227 230 239 246 245 245 256 203 189 200 205 206 212 212 218 220 211 209 216 220 227 234 231 226 227 226 225 231 238 238 250 256 255 256 258 260 256 263 273
190 198 211 218 224 233 232 238 240 244 249 267 261 246 200 200 203 212 209 209 221 216 213 213 221 228 238 240 243 232 234 230 225 235 234 248 249 260 262 259 260 272 272 266 273
201 210 223 236 245 240 232 235 239 239 229 244 255 242 223 223 206 201 206 205 216 215 220 220 231 234 240 244 241 245 244 237 240 245 245 251 256 262 266 264 263 262 267 267 270
204 219 236 246 252 256 256 254 252 242 235 237 248 248 264 225 202 222 227 227 225 217 213 212 224 221 233 244 244 244 244 243 243 245 248 245 263 274 272 271 272 267 262 268 279
Height
3071 3074 3078 3081 3084 3088 3092 3097 3102 3106 3110 3114 3119 3123 3127 3131 3135 3138 3141 3143 3146 3148 3152 3155 3158 3161 3163 3166 3168 3171 3174 3174 3175 3176 3176 3176 3177 3178 3179 3180 3180 3180 3181 3181 3182
3065 3069 3073 3076 3080 3083 3087 3091 3095 3100 3105 3109 3113 3118 3122 3126 3130 3134 3136 3138 3142 3146 3149 3152 3156 3159 3161 3163 3165 3169 3172 3174 3173 3175 3175 3175 3177 3177 3179 3179 3180 3180 3180 3181 3181
3058 3064 3068 3071 3075 3079 3082 3086 3090 3094 3099 3103 3107 3112 3116 3121 3125 3126 3132 3133 3138 3143 3147 3150 3153 3156 3159 3160 3163 3165 3170 3169 3171 3171 3173 3173 3174 3176 3178 3179 3179 3179 3178 3179 3180
3053 3057 3062 3067 3071 3074 3078 3082 3085 3089 3094 3098 3102 3106 3110 3116 3122 3120 3125 3129 3135 3139 3143 3147 3150 3152 3156 3157 3159 3163 3164 3167 3168 3169 3170 3171 3171 3173 3174 3178 3174 3175 3176 3177 3178
3045 3050 3056 3060 3066 3071 3075 3078 3081 3086 3089 3093 3096 3100 3105 3109 3112 3116 3120 3125 3129 3133 3138 3143 3146 3148 3151 3154 3156 3158 3160 3162 3165 3167 3168 3167 3169 3169 3170 3171 3172 3172 3173 3174 3174
3038 3043 3049 3054 3060 3066 3071 3075 3079 3082 3086 3088 3091 3096 3100 3104 3105 3112 3115 3120 3123 3127 3132 3137 3141 3144 3147 3149 3151 3152 3156 3157 3160 3162 3163 3164 3165 3163 3167 3167 3167 3168 3169 3169 3170
3031 3037 3042 3048 3054 3061 3067 3070 3075 3079 3082 3085 3088 3091 3093 3099 3101 3107 3111 3115 3120 3122 3126 3130 3134 3140 3140 3143 3142 3148 3151 3152 3153 3157 3158 3159 3157 3155 3162 3161 3162 3163 3164 3164 3166
3025 3030 3036 3042 3048 3055 3062 3069 3071 3075 3078 3082 3085 3085 3087 3093 3097 3102 3106 3110 3116 3120 3123 3125 3129 3133 3137 3134 3140 3145 3147 3148 3149 3152 3152 3154 3150 3155 3155 3155 3157 3158 3158 3159 3161
3018 3021 3030 3035 3043 3050 3057 3063 3066 3072 3075 3078 3081 3082 3084 3087 3092 3097 3101 3106 3111 3115 3119 3122 3125 3128 3130 3133 3138 3139 3142 3144 3147 3145 3147 3146 3146 3150 3146 3149 3151 3152 3153 3154 3155
3011 3018 3022 3029 3037 3044 3051 3057 3061 3067 3070 3073 3074 3079 3078 3084 3087 3091 3096 3101 3106 3111 3115 3118 3121 3123 3124 3128 3131 3137 3138 3140 3142 3140 3141 3140 3140 3144 3142 3142 3144 3146 3147 3149 3150
3004 3011 3018 3022 3029 3038 3044 3049 3058 3063 3062 3064 3066 3072 3077 3081 3084 3087 3092 3098 3102 3105 3108 3113 3115 3113 3119 3123 3129 3132 3136 3138 3138 3138 3138 3137 3136 3137 3137 3135 3137 3140 3142 3143 3144
2997 3004 3011 3016 3023 3031 3037 3041 3051 3054 3059 3062 3067 3070 3075 3078 3082 3084 3088 3093 3096 3100 3104 3109 3105 3114 3119 3122 3125 3127 3131 3134 3135 3133 3133 3133 3129 3128 3129 3128 3129 3133 3135 3136 3137
2990 2998 3004 3012 3019 3024 3031 3039 3046 3051 3057 3057 3059 3065 3072 3077 3079 3080 3085 3088 3092 3098 3100 3102 3105 3110 3115 3117 3120 3122 3126 3131 3133 3130 3129 3128 3120 3119 3121 3120 3122 3125 3128 3128 3128
2984 2990 2997 3005 3014 3015 3023 3034 3042 3048 3051 3049 3052 3057 3065 3072 3074 3077 3081 3086 3089 3093 3099 3101 3105 3106 3110 3113 3117 3119 3123 3126 3128 3129 3129 3125 3116 3114 3113 3114 3116 3118 3120 3121 3121
2978 2986 2991 2997 3006 3011 3023 3030 3037 3044 3039 3041 3042 3051 3058 3064 3070 3073 3079 3081 3085 3088 3095 3094 3096 3099 3104 3107 3113 3117 3118 3120 3123 3124 3124 3122 3123 3105 3108 3109 3111 3112 3114 3114 3115
2975 2981 2988 2992 2999 3008 3021 3027 3031 3033 3021 3026 3030 3038 3048 3054 3064 3066 3072 3077 3083 3086 3089 3093 3092 3096 3099 3104 3108 3111 3114 3117 3119 3121 3115 3114 3116 3098 3102 3103 3106 3106 3106 3107 3109
2970 2976 2983 2988 2996 3003 3013 3016 3012 3008 3015 3017 3020 3028 3036 3047 3057 3060 3063 3068 3073 3081 3082 3087 3087 3091 3095 3098 3103 3106 3111 3114 3116 3116 3105 3105 3108 3093 3097 3096 3101 3103 3103 3104 3104
2965 2973 2977 2985 2991 2998 3007 3010 3001 2998 3004 3009 3015 3024 3029 3040 3049 3053 3060 3062 3066 3071 3077 3080 3083 3082 3085 3090 3095 3097 3104 3104 3105 3101 3097 3100 3093 3088 3090 3095 3097 3098 3099 3099 3099
2962 2967 2973 2979 2985 2992 2999 2998 2990 2995 2999 3005 3013 3019 3027 3033 3041 3047 3049 3050 3056 3062 3071 3073 3076 3075 3078 3085 3091 3093 3092 3102 3103 3100 3099 3090 3086 3084 3084 3088 3090 3092 3092 3094 3096
2956 2963 2969 2976 2981 2985 2986 2983 2991 2994 2998 3002 3005 3010 3017 3023 3032 3038 3043 3043 3050 3056 3065 3067 3071 3071 3075 3081 3083 3085 3092 3097 3097 3094 3091 3081 3082 3079 3083 3082 3085 3084 3088 3089 3089
2954 2961 2968 2974 2978 2980 2978 2984 2990 2987 2994 2998 3001 3005 3010 3013 3021 3027 3031 3039 3044 3050 3058 3062 3065 3069 3071 3069 3072 3079 3082 3086 3088 3088 3083 3079 3075 3079 3078 3078 3079 3081 3082 3083 3086
2950 2959 2965 2969 2974 2973 2978 2984 2983 2988 2991 2993 2995 3000 3002 3007 3015 3022 3025 3030 3035 3044 3045 3053 3061 3063 3061 3065 3068 3071 3071 3075 3078 3078 3080 3080 3064 3074 3072 3073 3075 3075 3077 3078 3081
2949 2957 2963 2968 2971 2973 2977 2977 2978 2985 2980 2985 2992 2994 2998 3003 3013 3016 3021 3028 3032 3035 3037 3046 3050 3056 3059 3061 3059 3061 3064 3069 3071 3075 3072 3072 3054 3067 3069 3068 3071 3072 3072 3074 3075
2950 2957 2961 2965 2967 2972 2977 2982 2984 2983 2984 2989 2990 2986 2993 2999 3005 3009 3017 3023 3026 3031 3035 3040 3042 3042 3041 3043 3052 3054 3054 3059 3064 3064 3058 3059 3050 3058 3063 3064 3064 3065 3066 3066 3066
2952 2955 2958 2961 2964 2967 2972 2973 2974 2980 2984 2987 2986 2984 2990 2996 3000 3006 3013 3017 3020 3026 3030 3033 3033 3037 3035 3041 3047 3045 3048 3050 3053 3051 3051 3048 3054 3046 3053 3057 3060 3058 3057 3054 3057
2954 2957 2959 2961 2964 2965 2967 2966 2970 2977 2982 2980 2986 2984 2985 2986 2991 2996 3002 3005 3007 3016 3021 3026 3026 3031 3029 3033 3037 3037 3042 3043 3040 3041 3044 3043 3042 3039 3044 3047 3048 3049 3046 3042 3046
2955 2958 2960 2960 2960 2959 2957 2959 2962 2970 2972 2977 2979 2981 2984 2985 2990 2999 3000 3003 3005 3007 3012 3018 3020 3023 3021 3025 3029 3029 3029 3029 3033 3034 3033 3035 3029 3035 3030 3032 3035 3037 3039 3033 3037